This is the latest recevied weather packets stored in our database for station/object K5RWS. If no packets are shown the sender has not sent any weather packets the latest 1 day(s).
| Time | Temp. | Humidity | Pressure | Rain* | Wind** | Luminosity | Snow |
|---|---|---|---|---|---|---|---|
| 1778059261 | 6.11° C | 70% | 1016 hPa | 0 mm | - | 0 W/m² | - |
| 1778058960 | 5.56° C | 71% | 1016 hPa | 0 mm | - | 0 W/m² | - |
| 1778058355 | 6.11° C | 70% | 1016 hPa | 0 mm | - | 0 W/m² | - |
| 1778058051 | 6.11° C | 70% | 1016.3 hPa | 0 mm | - | 0 W/m² | - |
| 1778057748 | 6.11° C | 70% | 1015.9 hPa | 0 mm | - | 0 W/m² | - |
| 1778057444 | 6.11° C | 70% | 1016.1 hPa | 0 mm | - | 0 W/m² | - |
| 1778057141 | 6.11° C | 70% | 1016.2 hPa | 0 mm | - | 0 W/m² | - |
| 1778056837 | 6.11° C | 71% | 1016.1 hPa | 0 mm | - | 0 W/m² | - |
| 1778056535 | 6.11° C | 71% | 1016.3 hPa | 0 mm | - | 0 W/m² | - |
| 1778056232 | 6.11° C | 71% | 1016.6 hPa | 0 mm | - | 0 W/m² | - |
| 1778055624 | 6.67° C | 70% | 1016.3 hPa | 0 mm | - | 0 W/m² | - |
| 1778055323 | 6.11° C | 70% | 1016.4 hPa | 0 mm | - | 0 W/m² | - |
| 1778055020 | 6.11° C | 70% | 1016.6 hPa | 0 mm | - | 0 W/m² | - |
| 1778054112 | 6.67° C | 68% | 1016.7 hPa | 0 mm | - | 0 W/m² | - |
| 1778053506 | 6.67° C | 69% | 1016.7 hPa | 0 mm | - | 0 W/m² | - |
| 1778053203 | 6.67° C | 68% | 1016.6 hPa | 0 mm | - | 0 W/m² | - |
| 1778052598 | 7.22° C | 68% | 1016.6 hPa | 0 mm | - | 0 W/m² | - |
| 1778052295 | 7.22° C | 67% | 1016.7 hPa | 0 mm | - | 0 W/m² | - |
| 1778051993 | 7.22° C | 66% | 1016.6 hPa | 0 mm | - | 0 W/m² | - |
| 1778051387 | 7.78° C | 64% | 1016.6 hPa | 0 mm | - | 0 W/m² | - |
| 1778050479 | 8.89° C | 60% | 1016.1 hPa | 0 mm | - | 0 W/m² | - |
| 1778050175 | 8.89° C | 60% | 1016.2 hPa | 0 mm | - | 0 W/m² | - |
| 1778049266 | 8.89° C | 62% | 1016.2 hPa | 0 mm | - | 0 W/m² | - |
| 1778048964 | 8.89° C | 61% | 1016.3 hPa | 0 mm | - | 0 W/m² | - |
| 1778048662 | 9.44° C | 61% | 1016.3 hPa | 0 mm | - | 0 W/m² | - |
* Rain latest hour (hover to see other rain measurements)
** Current wind speed in m/s (hover to see current wind gust speed)